Lid_Strength_Index
-2 -1 -2 -2 -2 -2 -2 -1 -1 -1 -2 -1 -1 -1 -1 -1 -1 0 4 1 0 -1 -0 1 2 3 3 5 5 6 11 14 13 12 11 9 9 7 7 7 6 6 6 4 3
-1 -2 -2 -2 -2 -2 -2 -2 -1 -1 -2 -1 -1 -1 -1 -1 1 3 -1 -2 -1 -1 2 3 5 4 6 6 6 8 12 11 8 9 10 8 8 9 9 9 8 7 5 3 3
-1 -1 -1 -1 -2 -2 -1 -1 -2 -1 -2 -1 -2 -1 -1 -0 4 4 -2 -2 -2 -1 1 2 3 5 8 7 8 8 11 8 8 7 7 8 8 7 9 10 9 8 6 5 5
-1 -1 -1 -1 -1 -1 -1 -1 -1 -1 -2 -2 -1 -1 -1 1 11 2 -2 -2 -2 0 2 3 5 8 9 10 7 11 8 8 7 6 7 8 7 8 8 8 7 7 5 4 5
1 -0 -0 -1 -1 -1 -1 -1 -1 -1 -1 -1 -1 -1 1 5 5 -0 -1 -1 0 1 3 5 6 7 10 8 8 9 8 7 7 7 7 7 8 8 8 7 6 6 4 5 4
2 2 1 -0 -1 -1 -1 -1 -1 -1 -1 -1 -1 -1 3 8 1 -1 -0 1 1 2 3 4 6 5 8 8 9 8 8 8 7 7 7 8 8 8 7 7 6 5 5 5 4
1 1 2 1 0 -1 -1 -1 -1 -1 0 -1 -1 1 4 6 1 1 -0 1 1 2 4 3 4 6 7 10 7 8 11 9 9 8 8 7 9 9 6 6 6 5 5 6 4
-1 -1 -0 1 1 1 -1 -1 -0 -1 -1 -1 -1 3 8 2 2 2 1 1 1 1 2 2 3 5 7 7 8 11 11 15 10 8 8 8 13 8 6 7 7 7 6 5 5
-1 -1 -1 -1 -0 1 -0 -1 -1 -1 -2 -1 3 5 9 2 4 2 2 3 2 2 2 1 4 7 7 10 13 12 16 15 12 8 9 9 12 8 7 8 8 8 8 7 6
-1 -1 -1 -1 -1 -1 -1 -1 -1 -1 0 1 3 8 7 7 3 2 1 1 4 4 5 6 7 10 10 11 16 14 15 14 14 11 10 11 11 8 7 7 8 7 7 7 8
-1 -1 -1 -1 -1 -1 -1 1 4 5 5 7 7 8 7 4 2 3 2 3 4 6 10 8 11 13 11 11 11 12 14 14 12 9 11 12 11 10 8 8 9 7 7 7 6
-1 -1 -1 -1 -1 -2 0 4 4 3 8 5 7 6 5 4 7 5 2 7 8 11 9 11 13 10 9 10 11 12 13 14 12 10 11 12 12 9 8 8 7 7 7 6 6
-1 -1 -1 -1 -1 -0 2 3 1 2 8 7 5 6 6 5 7 6 4 6 9 10 10 12 11 8 10 11 13 13 13 13 13 11 10 12 13 11 8 8 7 7 6 6 6
0 -1 -1 -1 1 1 4 1 1 1 12 11 8 6 5 5 8 3 3 6 8 11 11 11 9 10 11 12 11 15 11 12 13 14 17 11 19 12 10 9 9 8 8 8 7
1 -1 -1 -1 2 4 3 0 0 3 20 9 8 3 4 7 7 7 3 6 10 11 10 12 11 11 12 12 10 13 10 11 12 14 16 14 17 14 11 11 9 9 9 8 8
0 -1 -1 0 1 2 0 0 3 13 19 12 8 9 9 8 8 7 7 5 6 10 10 10 8 9 10 9 9 9 12 13 14 14 19 15 16 15 12 11 10 10 9 8 8
-1 -1 -0 -0 4 -0 0 4 14 18 11 13 12 10 10 11 10 9 10 11 12 15 15 12 11 9 8 12 10 11 14 18 20 20 20 14 16 14 10 9 9 9 9 8 8
-1 -1 -0 0 0 -0 2 10 17 14 13 10 10 10 12 10 10 10 11 12 10 12 13 15 17 11 9 11 13 13 13 17 22 21 18 15 18 14 9 7 8 8 9 8 8
-1 1 2 1 0 1 7 15 15 13 11 11 11 13 13 11 11 11 12 12 10 10 14 15 15 10 9 9 9 13 15 11 17 17 19 16 13 10 8 8 8 9 9 10 8
2 3 3 0 0 3 10 13 12 9 9 10 14 12 15 13 12 12 12 10 11 9 9 12 16 11 10 9 9 11 10 17 16 22 22 18 17 15 12 11 10 11 10 9 9
3 7 2 -0 1 7 13 12 13 8 8 11 12 13 13 13 12 13 13 10 8 9 8 11 13 13 10 12 13 13 14 13 13 16 20 21 17 11 10 10 11 11 9 9 9
6 10 2 1 9 9 12 10 8 9 8 9 9 11 12 12 13 12 13 10 7 8 12 10 12 15 14 11 10 9 12 12 16 18 16 17 16 9 10 11 10 9 8 7 8
8 7 2 3 12 12 10 10 9 10 9 10 11 10 10 11 14 12 11 8 7 8 10 9 13 20 16 13 12 12 11 11 12 13 16 18 16 10 10 10 8 8 7 7 8
8 11 7 6 8 10 11 11 11 8 9 8 10 9 10 12 10 12 11 9 7 8 7 7 12 14 16 15 13 14 13 11 12 16 15 15 13 11 9 9 8 8 6 8 10
9 10 8 11 10 10 9 10 11 12 9 8 10 10 11 13 12 13 10 10 8 7 8 9 15 13 13 13 13 13 13 13 13 13 15 14 13 11 10 9 8 9 9 10 10
10 10 8 12 8 10 10 11 11 12 10 11 12 10 9 12 11 13 10 10 11 9 9 10 16 13 16 12 12 13 12 12 12 13 13 13 13 9 10 11 12 12 12 12 12
6 6 8 8 9 10 11 12 10 9 8 8 9 9 10 9 8 8 7 7 8 9 10 11 13 18 19 14 14 16 14 12 12 11 11 14 11 12 12 11 12 13 13 14 13